(6) Hebe
ephemeris date magn radius delta ra dec elong phase
Opposition25 Aug 20257.62.035 AU1.029 AU22h32m-17°02'172.5°3.7°
Today18 Sep 20258.02.000 AU1.061 AU22h17m-22°23'151.1°14.0°
(6) Hebe - 2025-09-18
astro.vanbuitenen.nl


 
-1 year
-1 month
-1 day
Now
+1 day
+1 month
+1 year

The interactive orbit chart above shows the body's path through the solar system and its position at the given date. Green and blue lines are shown perpendicular to the ecliptic plane: Green if the path is above the ecliptic plane, blue if it is below. (Left-click and drag to rotate the view; Right-click and drag to move the view; Use scroll wheel to zoom in our out.)

The orbital elements of Hebe are:

            e (Eccentricity)                : 0.2023356
            a (Semimajor axis)              : 2.4258792
            i (Inclination)                 : 14.73542
            Ω (Longitude of ascending node) : 138.61439
            ω (Argument of perihelion)      : 239.67015
            M (Mean anomaly)                : 300.41267
            Epoch                           : 2025 May 05

            L (Longitude of perihelion)     : 197.44262
            B (Latitude of perihelion)      : -12.68218
            P (Orbital period in years)     : 3.78            
        

The light curve chart below shows the estimated development of the minor planet's magnitude.


The all-sky chart below shows the path of the minor planet over the same period as the light curve. The current position is marked yellow.





The following chart shows the path of the minor planet in the next few days. The field of view is optimized for (~10x50) binoculars and finderscopes. A more printer-friendly version of the same chart can be found below.




Ephemerides:
Date       Time       RA (2000)    DEC (2000)    delta   radius  elong  phase   PA    magn
2025-09-18 00:00 UT   22 17 26.0   -22 23 38     1.061    2.000  151.1   14.0    48    8.0 
2025-09-18 11:51 UT   22 17 11.7   -22 28 43     1.063    2.000  150.6   14.3    48    8.1 
2025-09-19 00:00 UT   22 16 57.4   -22 33 50     1.065    1.999  150.0   14.5    49    8.1 
2025-09-20 00:00 UT   22 16 30.3   -22 43 40     1.069    1.998  148.9   15.0    49    8.1 
2025-09-21 00:00 UT   22 16 04.8   -22 53 08     1.073    1.996  147.9   15.5    50    8.1 
2025-09-22 00:00 UT   22 15 40.8   -23 02 15     1.078    1.995  146.8   16.0    51    8.1 
2025-09-23 00:00 UT   22 15 18.6   -23 10 59     1.083    1.994  145.7   16.5    51    8.2 
2025-09-24 00:00 UT   22 14 58.0   -23 19 22     1.088    1.992  144.6   16.9    52    8.2 
2025-09-25 00:00 UT   22 14 39.2   -23 27 22     1.093    1.991  143.6   17.4    52    8.2 
2025-09-26 00:00 UT   22 14 22.3   -23 34 59     1.098    1.990  142.5   17.9    53    8.2 
2025-09-27 00:00 UT   22 14 07.1   -23 42 15     1.104    1.989  141.5   18.3    53    8.3 
2025-09-28 00:00 UT   22 13 53.9   -23 49 08     1.109    1.987  140.5   18.7    54    8.3 
2025-09-29 00:00 UT   22 13 42.5   -23 55 38     1.115    1.986  139.4   19.2    54    8.3 
2025-09-30 00:00 UT   22 13 33.1   -24 01 47     1.121    1.985  138.4   19.6    55    8.3 
2025-10-01 00:00 UT   22 13 25.7   -24 07 33     1.127    1.984  137.4   20.0    55    8.4 
2025-10-02 00:00 UT   22 13 20.2   -24 12 57     1.134    1.983  136.4   20.4    55    8.4 
2025-10-03 00:00 UT   22 13 16.7   -24 17 60     1.140    1.981  135.4   20.8    56    8.4 
2025-10-04 00:00 UT   22 13 15.3   -24 22 40     1.147    1.980  134.4   21.2    56    8.4 
2025-10-05 00:00 UT   22 13 15.8   -24 26 59     1.154    1.979  133.4   21.5    56    8.5 
2025-10-06 00:00 UT   22 13 18.4   -24 30 57     1.160    1.978  132.5   21.9    57    8.5 
2025-10-07 00:00 UT   22 13 23.0   -24 34 34     1.167    1.977  131.5   22.2    57    8.5 
2025-10-08 00:00 UT   22 13 29.6   -24 37 50     1.174    1.976  130.6   22.6    57    8.5 
2025-10-09 00:00 UT   22 13 38.3   -24 40 45     1.182    1.975  129.6   22.9    58    8.5 
2025-10-10 00:00 UT   22 13 49.0   -24 43 20     1.189    1.974  128.7   23.3    58    8.6 
2025-10-11 00:00 UT   22 14 01.7   -24 45 34     1.197    1.973  127.7   23.6    58    8.6 
2025-10-12 00:00 UT   22 14 16.4   -24 47 29     1.204    1.972  126.8   23.9    59    8.6 
2025-10-13 00:00 UT   22 14 33.1   -24 49 04     1.212    1.971  125.9   24.2    59    8.6 
2025-10-14 00:00 UT   22 14 51.8   -24 50 19     1.220    1.969  125.0   24.5    59    8.7 
2025-10-15 00:00 UT   22 15 12.5   -24 51 15     1.228    1.968  124.1   24.8    59    8.7 
2025-10-16 00:00 UT   22 15 35.3   -24 51 52     1.236    1.967  123.2   25.1    60    8.7 
2025-10-17 00:00 UT   22 15 60.0   -24 52 10     1.244    1.967  122.4   25.3    60    8.7 
2025-10-18 00:00 UT   22 16 26.6   -24 52 09     1.252    1.966  121.5   25.6    60    8.7 


    Terminology:
            
    delta:  distance between minor planet and earth in AU
    radius: distance between minor planet and sun in AU
    magn:   magnitude (brightness) estimate    
    ra:     right ascension in hours (24h = 360deg)
    dec:    declination in degrees
    elong:  elongation in degrees (angle sun-earth-minor planet)    
    phase:  phase angle in degrees (angle sun-minor planet-earth)        
    AU:     Astronomical Unit (mean distance between earth and sun: 149597870.7 km
    

Orbital elements provided by the MPC (Minor Planet Center).
Calculations by a modified version of AAPlus, a C# implementation of the AA+ project by PJ Naughter from the algorithms presented in the book "Astronomical Algorithms" by Jean Meeus.
NGC2000 dso catalog and star labels from VizieR as provided by the Strasbourg astronomical Data Center.
Tycho2 catalog from the ESO archive.